RH
19 19 16 13 10 9 7 6 6 6 5 5 5 4 4 4 4 4 5 6 8 10 14 18 26 32 30 38 42 42 44 43 41 44 45 42 38 38 38 33 34 31 26 27 34
19 19 18 12 11 8 7 6 6 5 5 5 5 4 4 4 6 5 6 5 4 4 7 15 24 29 32 36 35 35 43 37 34 37 40 41 36 38 32 31 30 33 28 31 33
19 18 17 12 9 8 6 6 5 5 5 5 5 4 4 8 13 10 6 4 4 4 5 13 19 29 32 36 39 37 37 35 35 33 31 37 33 33 28 29 26 29 29 31 34
18 16 16 14 12 8 6 6 5 5 5 5 5 4 5 10 18 10 5 4 4 4 6 10 20 27 30 33 38 36 32 29 26 30 30 27 28 26 25 28 27 29 27 30 34
16 15 15 16 14 10 7 6 5 5 5 4 4 4 4 7 13 11 7 5 4 6 7 14 21 27 25 24 31 37 31 27 24 22 24 22 28 29 30 27 32 33 30 32 36
14 14 13 15 14 13 8 6 6 5 5 4 4 4 4 7 8 9 7 6 6 7 7 12 20 23 22 20 23 27 27 22 21 24 24 23 24 27 29 28 31 30 32 34 38
12 12 13 13 14 12 9 7 6 5 5 4 4 4 4 4 6 7 5 6 6 7 7 8 17 20 21 20 19 19 20 23 23 23 25 28 28 24 26 28 29 32 32 36 33
11 11 12 12 12 11 10 7 6 6 5 5 4 5 4 6 6 5 5 5 5 6 7 8 7 12 17 17 18 17 20 25 24 27 27 24 20 21 27 28 32 33 33 37 37
11 11 11 11 11 11 10 7 7 6 5 5 5 6 4 6 6 6 5 5 6 6 6 7 6 10 11 14 17 17 18 19 19 26 27 24 18 23 30 32 36 36 37 38 43
11 11 10 10 10 10 10 8 8 7 7 5 5 5 6 7 6 6 5 7 7 6 5 6 7 8 9 13 16 16 17 19 23 24 25 21 19 20 29 31 36 36 39 40 43
13 11 10 10 9 10 9 11 11 12 9 8 8 6 7 8 7 6 6 7 7 6 6 6 8 8 9 14 13 13 15 17 16 18 19 17 15 15 25 35 37 35 39 43 45
14 14 12 10 10 9 11 13 14 12 9 9 8 8 7 8 9 7 8 8 6 6 6 7 7 7 11 12 13 13 14 15 15 18 19 18 17 18 22 29 32 36 39 42 44
11 13 14 12 11 10 11 12 12 13 10 7 7 7 8 8 9 8 8 8 7 7 8 10 9 12 12 11 12 12 14 15 16 16 19 19 16 17 21 26 33 37 38 40 43
11 10 12 15 13 13 13 13 11 11 14 8 7 6 7 9 8 7 8 9 9 8 10 12 11 12 13 12 12 11 13 17 18 17 17 14 17 18 20 28 35 40 42 42 44
14 11 9 12 15 16 14 13 12 11 12 9 8 7 6 8 8 7 7 10 9 9 11 14 14 15 14 12 10 9 12 13 13 14 14 10 15 17 25 37 42 45 45 43 46
13 12 9 9 12 16 17 16 13 16 15 10 10 10 9 8 9 9 11 11 11 12 13 13 15 16 15 12 10 10 12 12 15 13 16 20 25 28 34 36 40 40 40 51 53
27 13 11 9 11 14 16 17 18 21 10 10 12 11 12 10 9 10 11 13 13 13 15 14 16 16 13 12 11 11 13 18 16 22 24 23 28 30 29 30 32 39 50 62 55
27 27 12 11 11 13 15 17 21 15 10 13 14 14 15 13 10 10 11 14 14 13 18 20 20 13 18 15 13 13 15 19 18 21 23 22 23 31 31 31 36 43 49 50 83
25 27 22 12 12 16 14 19 17 18 13 14 15 16 16 16 12 12 14 15 14 12 16 20 20 21 22 24 20 17 16 18 20 22 23 24 29 34 43 40 50 56 52 47 71
21 24 26 22 14 18 18 19 14 16 18 15 20 20 20 18 15 13 13 13 14 13 13 20 23 25 21 25 23 20 19 20 22 23 23 27 31 37 42 44 53 49 50 49 55
21 30 30 27 19 18 19 17 13 15 18 18 21 22 22 22 18 14 13 13 14 15 14 22 26 27 25 26 25 25 22 19 20 25 26 29 26 34 39 43 45 43 43 46 48
24 34 33 34 24 21 19 16 13 15 18 20 20 22 23 22 21 21 16 16 18 17 16 22 30 32 30 28 27 26 24 24 29 24 30 32 33 33 37 37 38 41 45 47 40
26 36 36 39 34 23 19 17 15 15 20 23 21 22 21 21 23 25 22 18 19 23 24 21 31 31 32 30 29 29 29 28 29 28 26 30 29 32 34 36 40 40 39 38 48
27 44 40 37 39 30 21 20 20 19 24 23 23 23 23 21 23 26 24 21 21 23 26 28 31 27 31 32 31 30 29 28 29 31 29 33 35 37 41 46 48 45 40 36 42
34 49 40 41 36 37 23 22 24 24 26 21 24 24 24 22 25 32 28 26 23 22 26 28 32 32 29 27 28 28 26 26 29 28 29 28 33 35 40 48 50 49 50 46 49
35 46 40 41 41 37 29 21 26 25 27 21 22 24 27 31 32 35 35 32 31 26 25 28 30 30 28 29 26 27 25 28 28 28 27 32 34 35 42 48 50 50 52 54 60
26 36 44 45 41 40 45 30 29 29 29 29 22 24 29 30 30 33 35 34 31 30 28 29 28 29 28 28 28 26 22 22 31 35 36 34 36 40 46 42 48 53 44 44 56